Regional Weather Roundup
Issued by NWS

Home | Current Version | Previous Version | Text Only | Print | Product List | Glossary Off
Versions: 1 2 3 4 5 6 7 8 9 10 11 12 13 14 15 16 17 18 19 20 21 22 23 24 25 26 27 28 29 30 31 32 33 34 35 36 37 38 39 40 41 42 43 44 45 46 47 48 49 50

000
ASUS44 KMEG 300710
RWRTN
TENNESSEE HOURLY STATE WEATHER ROUNDUP
NATIONAL WEATHER SERVICE MEMPHIS TN
200 AM CDT THU JUL 30 2015

TNZ002-004-019-021-049-052-054-088>092-300800-
WEST TENNESSEE

CITY           SKY/WX    TMP DP  RH WIND       PRES   REMARKS
MEMPHIS INTL   PTCLDY    85  75  72 NE5       30.03F HX  93
NWS MEMPHIS      N/A     83 N/A N/A MISG        N/A
JACKSON        PTCLDY    80  74  81 NW5       30.03F
DYERSBURG        N/A    N/A N/A N/A MISG        N/A
PARIS          PTCLDY    73  73 100 NW3       30.05S
$$

TNZ008-025-027-028-033-062-065-066-300800-
NORTH MIDDLE TENNESSEE

CITY           SKY/WX    TMP DP  RH WIND       PRES   REMARKS
NASHVILLE      PTCLDY    78  72  81 N3        30.02R
CLARKSVILLE    MOCLDY    73  71  93 NW5       30.02F
SMYRNA         CLEAR     77  73  87 N3        30.02S
CROSSVILLE     MOCLDY    73  68  84 CALM      30.07F
$$

TNZ061-075-076-078-094-096-097-300800-
SOUTH MIDDLE TENNESSEE

CITY           SKY/WX    TMP DP  RH WIND       PRES   REMARKS
FAYETTEVILLE   CLEAR     75  75 100 CALM      30.01F
TULLAHOMA      CLEAR     75  72  88 CALM      30.03S
WINCHESTER     CLEAR     75  73  94 CALM      30.02S
MCMINNVILLE    CLEAR     72  72 100 CALM      30.03S
COLUMBIA       CLEAR     75  75 100 CALM      30.02R
SHELBYVILLE    CLEAR     77  75  94 CALM      30.02F
$$

TNZ017-018-042-046-047-300800-
NORTHEAST TENNESSEE

CITY           SKY/WX    TMP DP  RH WIND       PRES   REMARKS
TRI CITIES     MOCLDY    73  71  93 CALM      30.02F
ELIZABETHTON   SUNNY     72  70  94 CALM      30.03F
$$

TNZ012-013-036-069-073-074-300800-
CENTRAL EAST TENNESSEE

CITY           SKY/WX    TMP DP  RH WIND       PRES   REMARKS
KNOXVILLE      PTCLDY    78  73  84 N5        29.98S
OAK RIDGE      CLOUDY    78  74  87 CALM      30.01R
GATLINBURG     MOSUNNY   73  70  88 CALM      29.98S
MORRISTOWN       N/A     77  73  88 CALM      30.02R
$$

TNZ083-085-099-300800-
SOUTHEAST TENNESSEE

CITY           SKY/WX    TMP DP  RH WIND       PRES   REMARKS
CHATTANOOGA    CLEAR     79  74  84 N5        29.99R
$$

SKY/WX REPORTED AS FAIR MEANS FEW OR NO CLOUDS BELOW
12 THOUSAND FEET.




USA.gov is the U.S. government's official web portal to all federal, state and local government web resources and services.